Tucson, AZ

10:13 PM MST on June 16, 2019 (GMT -0700)
Tucson International

Weather History for KTUS - May, 2019

Change the Weather History Date:

Thursday, May 23, 2019

  Actual Average Record
Temperature  
Mean Temperature 66 °F 78 °F  
Max Temperature 76 °F 94 °F 106 °F (1984)
Min Temperature 56 °F 62 °F 44 °F (1927)
Degree Days  
Heating Degree Days 0 0  
Month to date heating degree days 1 3  
Since 1 July heating degree days 1409 1509  
Cooling Degree Days 1 13  
Month to date cooling degree days 137 231  
Year to date cooling degree days 317 385  
Growing Degree Days 15 (Base 50)    
Moisture  
Dew Point 32 °F    
Average Humidity 30    
Maximum Humidity 51    
Minimum Humidity 9    
Precipitation  
Precipitation 0.00 in 0.01 in 0.52 in (1919)
Month to date precipitation 1.22 0.17  
Year to date precipitation 5.03 3.01  
Sea Level Pressure  
Sea Level Pressure 29.87 in    
Wind  
Wind Speed 7 mph (WSW)    
Max Wind Speed 17 mph    
Max Gust Speed 23 mph    
Visibility 10 miles    
Events      
T = Trace of Precipitation, MM = Missing Value Source: NWS Daily Summary

Daily Weather History Graph

Daily Weather History Graph

Search for Another Location

Airport or City:

Astronomy

May. 23, 2019 Rise Set
Actual Time 5:21 AM MST 7:19 PM MST
Civil Twilight 4:54 AM MST 7:47 PM MST
Nautical Twilight 4:21 AM MST 8:20 PM MST
Astronomical Twilight 3:45 AM MST 8:55 PM MST
Moon 11:48 PM MST (5/23) 9:29 AM MST (5/23)
Length of Visible Light 14h 52m
Length of Day
13h 58m
Waning Gibbous, 76% of the Moon is Illuminated
May 23
Waning Gibbous
May 26
Last Quarter
Jun 3
New
Jun 9
First Quarter
Jun 17
Full

Hourly Weather History & Observations

Time (MST) Temp. Dew Point Humidity Pressure Visibility Wind Dir Wind Speed Gust Speed Precip Events Conditions
12:53 AM 57.9 °F 37.0 °F 46% 29.72 in 10.0 mi WSW 9.2 mph - N/A   Clear
1:53 AM 57.9 °F 37.9 °F 47% 29.73 in 10.0 mi North - - N/A   Overcast
2:53 AM 57.9 °F 39.0 °F 49% 29.75 in 10.0 mi SW 5.8 mph - N/A   Overcast
3:53 AM 57.9 °F 39.9 °F 51% 29.77 in 10.0 mi SW 6.9 mph - N/A   Overcast
4:53 AM 57.0 °F 36.0 °F 45% 29.78 in 10.0 mi South 12.7 mph - N/A   Scattered Clouds
5:53 AM 55.9 °F 36.0 °F 47% 29.82 in 10.0 mi South 8.1 mph - N/A   Mostly Cloudy
6:53 AM 57.0 °F 37.0 °F 47% 29.86 in 10.0 mi South 9.2 mph - N/A   Mostly Cloudy
7:53 AM 59.0 °F 37.0 °F 44% 29.89 in 10.0 mi SSW 11.5 mph 20.7 mph N/A   Clear
8:47 AM 60.8 °F 37.4 °F 42% 29.99 in 10.0 mi SSW 8.1 mph - N/A   Scattered Clouds
8:53 AM 61.0 °F 37.0 °F 41% 29.91 in 10.0 mi SE 11.5 mph - N/A   Scattered Clouds
9:53 AM 63.0 °F 39.0 °F 41% 29.91 in 10.0 mi South 6.9 mph - N/A   Scattered Clouds
10:53 AM 63.0 °F 39.0 °F 41% 29.94 in 10.0 mi WSW 9.2 mph - N/A   Partly Cloudy
11:53 AM 70.0 °F 33.1 °F 26% 29.93 in 10.0 mi Variable 3.5 mph - N/A   Clear
12:53 PM 71.1 °F 32.0 °F 24% 29.92 in 10.0 mi NNW 3.5 mph 17.3 mph N/A   Clear
1:53 PM 73.0 °F 30.0 °F 20% 29.90 in 10.0 mi NW 4.6 mph - N/A   Clear
2:53 PM 73.0 °F 28.0 °F 19% 29.88 in 10.0 mi WNW 10.4 mph - N/A   Clear
3:53 PM 73.9 °F 28.0 °F 18% 29.86 in 10.0 mi Calm Calm - N/A   Clear
4:53 PM 75.0 °F 28.0 °F 18% 29.86 in 10.0 mi North - - N/A   Clear
4:58 PM 75.0 °F 28.0 °F 18% 29.95 in 10.0 mi West 11.5 mph - N/A   Clear
5:39 PM 75.0 °F 27.0 °F 17% 29.94 in 10.0 mi North - - N/A   Clear
5:53 PM 75.0 °F 27.0 °F 17% 29.85 in 10.0 mi North - - N/A   Clear
6:53 PM 73.0 °F 27.0 °F 18% 29.85 in 10.0 mi North 9.2 mph - N/A   Clear
7:53 PM 71.1 °F 26.1 °F 19% 29.86 in 10.0 mi NNW 6.9 mph - N/A   Clear
8:53 PM 68.0 °F 26.1 °F 21% 29.88 in 10.0 mi NNW 6.9 mph - N/A   Clear
9:53 PM 66.0 °F 27.0 °F 23% 29.90 in 10.0 mi NW 6.9 mph - N/A   Clear
10:53 PM 64.0 °F 28.0 °F 26% 29.90 in 10.0 mi WNW 4.6 mph - N/A   Clear
11:53 PM 61.0 °F 28.9 °F 30% 29.89 in 10.0 mi West 4.6 mph - N/A   Clear